• Em Portugal
  • Lista de países
  • Para 7 dias
  • Temperatura da água
  • Mapas de satélite
  • Mapa do tempo
  • Widgets de tempo
  • user-avatar
    Iniciar Sessão

    Previsão horária em Ordino

    Hoje, 18 Fevereiro, Domingo

    Tempo Temperatura Precipitação Vento Pressão Humidade
    00:00 -5°C° 0 mm 3 m/s 634 mmHg 86%
    01:00 -6°C° 0 mm 3 m/s 634 mmHg 86%
    02:00 -6°C° 0 mm 3 m/s 634 mmHg 85%
    03:00 -6°C° 0 mm 3 m/s 633 mmHg 85%
    04:00 -6°C° 0 mm 3 m/s 633 mmHg 84%
    05:00 -7°C° 0 mm 3 m/s 633 mmHg 83%
    06:00 -7°C° 0 mm 3 m/s 633 mmHg 83%
    07:00 -5°C° 0 mm 3 m/s 633 mmHg 77%
    08:00 -3°C° 0 mm 2 m/s 634 mmHg 72%
    09:00 -2°C° 0 mm 2 m/s 634 mmHg 67%
    10:00 +1°C° 0 mm 2 m/s 635 mmHg 63%
    11:00 +1°C° 0 mm 3 m/s 635 mmHg 60%
    12:00 +2°C° 0 mm 3 m/s 635 mmHg 57%
    13:00 +2°C° 0 mm 3 m/s 635 mmHg 59%
    14:00 +3°C° 0 mm 2 m/s 634 mmHg 62%
    15:00 +3°C° 0 mm 2 m/s 634 mmHg 65%
    16:00 +2°C° 0,2 mm 2 m/s 633 mmHg 71%
    17:00 +1°C° 0,2 mm 2 m/s 633 mmHg 77%
    18:00 +1°C° 0,2 mm 1 m/s 632 mmHg 83%
    19:00 +1°C° 0,4 mm 1 m/s 632 mmHg 85%
    20:00 0°C° 0,4 mm 1 m/s 632 mmHg 86%
    21:00 0°C° 0,4 mm 1 m/s 632 mmHg 88%
    22:00 0°C° 0,4 mm 1 m/s 632 mmHg 88%
    23:00 0°C° 0,4 mm 1 m/s 632 mmHg 89%

    Amanhã, 19 Fevereiro, Segunda-feira

    Tempo Temperatura Precipitação Vento Pressão Humidade
    00:00 +1°C° 0,4 mm 1 m/s 632 mmHg 90%
    01:00 0°C° 0,1 mm 1 m/s 631 mmHg 91%
    02:00 0°C° 0,1 mm 1 m/s 631 mmHg 92%
    03:00 0°C° 0,1 mm 1 m/s 631 mmHg 93%
    04:00 0°C° 0 mm 1 m/s 630 mmHg 93%
    05:00 0°C° 0 mm 1 m/s 630 mmHg 93%
    06:00 -3°C° 0 mm 2 m/s 630 mmHg 92%
    07:00 -2°C° 0 mm 2 m/s 631 mmHg 89%
    08:00 +1°C° 0 mm 1 m/s 631 mmHg 85%
    09:00 +2°C° 0 mm 1 m/s 632 mmHg 82%
    10:00 +2°C° 0 mm 2 m/s 632 mmHg 78%
    11:00 +3°C° 0 mm 2 m/s 632 mmHg 75%
    12:00 +4°C° 0 mm 2 m/s 632 mmHg 71%
    13:00 +4°C° 0 mm 2 m/s 632 mmHg 72%
    14:00 +3°C° 0 mm 2 m/s 632 mmHg 72%
    15:00 +3°C° 0 mm 2 m/s 631 mmHg 72%
    16:00 +2°C° 0,1 mm 2 m/s 631 mmHg 78%
    17:00 +1°C° 0,1 mm 2 m/s 630 mmHg 84%
    18:00 -2°C° 0,1 mm 2 m/s 630 mmHg 89%
    19:00 -2°C° 0,1 mm 2 m/s 630 mmHg 89%
    20:00 -2°C° 0,1 mm 2 m/s 630 mmHg 90%
    21:00 -3°C° 0,1 mm 2 m/s 630 mmHg 90%
    22:00 -3°C° 0 mm 2 m/s 630 mmHg 89%
    23:00 -3°C° 0 mm 2 m/s 630 mmHg 88%

    Depois de amanhã, 20 Fevereiro, Terça-feira

    Tempo Temperatura Precipitação Vento Pressão Humidade
    00:00 -3°C° 0 mm 2 m/s 630 mmHg 88%
    01:00 -5°C° 0 mm 3 m/s 630 mmHg 87%
    02:00 -5°C° 0 mm 3 m/s 630 mmHg 86%
    03:00 -5°C° 0 mm 3 m/s 629 mmHg 86%
    04:00 -5°C° 0 mm 3 m/s 629 mmHg 85%
    05:00 -5°C° 0 mm 3 m/s 629 mmHg 84%
    06:00 -6°C° 0 mm 3 m/s 629 mmHg 84%
    07:00 -4°C° 0 mm 3 m/s 630 mmHg 80%
    08:00 -2°C° 0 mm 3 m/s 630 mmHg 77%
    09:00 -1°C° 0 mm 3 m/s 631 mmHg 73%
    10:00 0°C° 0,1 mm 3 m/s 631 mmHg 72%
    11:00 +1°C° 0,1 mm 3 m/s 631 mmHg 71%
    12:00 +1°C° 0,1 mm 3 m/s 631 mmHg 70%
    13:00 +1°C° 0,2 mm 3 m/s 630 mmHg 72%
    14:00 +2°C° 0,2 mm 3 m/s 630 mmHg 74%
    15:00 +2°C° 0,2 mm 3 m/s 629 mmHg 75%
    16:00 +1°C° 0,5 mm 3 m/s 629 mmHg 79%
    17:00 0°C° 0,5 mm 3 m/s 628 mmHg 82%
    18:00 0°C° 0,5 mm 3 m/s 628 mmHg 85%
    19:00 -1°C° 0,8 mm 3 m/s 628 mmHg 86%
    20:00 -1°C° 0,8 mm 3 m/s 628 mmHg 86%
    21:00 -1°C° 0,8 mm 3 m/s 628 mmHg 87%
    22:00 -1°C° 0,7 mm 3 m/s 628 mmHg 87%
    23:00 -1°C° 0,7 mm 3 m/s 627 mmHg 87%

    21 Fevereiro, Quarta-feira

    Tempo Temperatura Precipitação Vento Pressão Humidade
    00:00 -1°C° 0,7 mm 3 m/s 627 mmHg 87%
    01:00 -2°C° 0,8 mm 3 m/s 627 mmHg 87%
    02:00 -2°C° 0,8 mm 3 m/s 626 mmHg 88%
    03:00 -2°C° 0,8 mm 3 m/s 626 mmHg 88%
    04:00 -2°C° 0,5 mm 3 m/s 626 mmHg 88%
    05:00 -4°C° 0,5 mm 3 m/s 626 mmHg 88%
    06:00 -4°C° 0,5 mm 3 m/s 626 mmHg 88%
    07:00 -4°C° 0,1 mm 3 m/s 626 mmHg 86%
    08:00 -2°C° 0,1 mm 3 m/s 627 mmHg 84%
    09:00 -2°C° 0,1 mm 3 m/s 627 mmHg 82%
    10:00 -2°C° 0 mm 3 m/s 627 mmHg 78%
    11:00 -1°C° 0 mm 3 m/s 627 mmHg 73%
    12:00 0°C° 0 mm 3 m/s 627 mmHg 69%
    13:00 -1°C° 0 mm 3 m/s 627 mmHg 68%
    14:00 -1°C° 0 mm 3 m/s 627 mmHg 67%
    15:00 -1°C° 0 mm 3 m/s 626 mmHg 66%
    16:00 -2°C° 0 mm 3 m/s 626 mmHg 71%
    17:00 -5°C° 0 mm 3 m/s 625 mmHg 76%
    18:00 -6°C° 0 mm 3 m/s 625 mmHg 81%
    19:00 -7°C° 0 mm 3 m/s 625 mmHg 81%
    20:00 -7°C° 0 mm 3 m/s 625 mmHg 80%
    21:00 -8°C° 0 mm 3 m/s 625 mmHg 80%
    22:00 -8°C° 0 mm 3 m/s 625 mmHg 80%
    23:00 -8°C° 0 mm 3 m/s 624 mmHg 80%

    22 Fevereiro, Quinta-feira

    Tempo Temperatura Precipitação Vento Pressão Humidade
    00:00 -8°C° 0 mm 3 m/s 624 mmHg 80%
    01:00 -9°C° 0 mm 3 m/s 623 mmHg 80%
    02:00 -9°C° 0 mm 3 m/s 622 mmHg 80%
    03:00 -9°C° 0 mm 3 m/s 622 mmHg 80%
    04:00 -9°C° 0 mm 3 m/s 621 mmHg 79%
    05:00 -10°C° 0 mm 3 m/s 621 mmHg 79%
    06:00 -10°C° 0 mm 3 m/s 621 mmHg 79%
    07:00 -9°C° 0,1 mm 3 m/s 621 mmHg 75%
    08:00 -9°C° 0,1 mm 4 m/s 621 mmHg 71%
    09:00 -9°C° 0,1 mm 4 m/s 621 mmHg 68%
    10:00 -8°C° 0 mm 4 m/s 621 mmHg 65%
    11:00 -7°C° 0 mm 4 m/s 621 mmHg 63%
    12:00 -5°C° 0 mm 4 m/s 621 mmHg 60%
    13:00 -5°C° 0 mm 3 m/s 621 mmHg 61%
    14:00 -5°C° 0 mm 3 m/s 621 mmHg 62%
    15:00 -5°C° 0 mm 3 m/s 621 mmHg 63%
    16:00 -6°C° 0 mm 3 m/s 621 mmHg 67%
    17:00 -7°C° 0 mm 3 m/s 621 mmHg 72%
    18:00 -7°C° 0 mm 2 m/s 621 mmHg 76%
    19:00 -8°C° 0 mm 2 m/s 621 mmHg 77%
    20:00 -9°C° 0 mm 2 m/s 621 mmHg 78%
    21:00 -10°C° 0 mm 2 m/s 621 mmHg 79%
    22:00 -10°C° 0 mm 2 m/s 620 mmHg 78%
    23:00 -10°C° 0 mm 2 m/s 620 mmHg 78%

    23 Fevereiro, Sexta-feira

    Tempo Temperatura Precipitação Vento Pressão Humidade
    00:00 -10°C° 0 mm 2 m/s 620 mmHg 77%
    01:00 -10°C° 0 mm 2 m/s 620 mmHg 77%
    02:00 -10°C° 0 mm 2 m/s 620 mmHg 77%
    03:00 -10°C° 0 mm 2 m/s 620 mmHg 77%
    04:00 -12°C° 0 mm 2 m/s 620 mmHg 76%
    05:00 -12°C° 0 mm 2 m/s 620 mmHg 76%
    06:00 -12°C° 0 mm 2 m/s 620 mmHg 75%
    07:00 -8°C° 0 mm 1 m/s 621 mmHg 69%
    08:00 -6°C° 0 mm 1 m/s 622 mmHg 63%
    09:00 -3°C° 0 mm 1 m/s 623 mmHg 57%
    10:00 -2°C° 0 mm 1 m/s 623 mmHg 55%
    11:00 -1°C° 0 mm 1 m/s 624 mmHg 52%
    12:00 0°C° 0 mm 1 m/s 624 mmHg 50%
    13:00 0°C° 0 mm 1 m/s 624 mmHg 52%
    14:00 -2°C° 0 mm 2 m/s 624 mmHg 53%
    15:00 -2°C° 0 mm 2 m/s 624 mmHg 55%
    16:00 -1°C° 0 mm 1 m/s 623 mmHg 63%
    17:00 -3°C° 0 mm 1 m/s 623 mmHg 70%
    18:00 -6°C° 0 mm 0 m/s 622 mmHg 78%
    19:00 -7°C° 0 mm 1 m/s 623 mmHg 78%
    20:00 -7°C° 0 mm 1 m/s 623 mmHg 77%
    21:00 -7°C° 0 mm 1 m/s 623 mmHg 76%
    22:00 -7°C° 0 mm 1 m/s 623 mmHg 76%
    23:00 -7°C° 0 mm 1 m/s 623 mmHg 75%
    Mostrar mais